FENGYUN 1C DEB

Satellite information

Favourite Embed

Satellite Type and Status

DEBRISIN ORBIT

Key statistics

Satellite FENGYUN 1C DEB at a glance.

Uptime

9715

Days in orbit

Revolutions

≈ 14.0

Per day

Orbit

SSO

Sun Synchronous Orbit

Inclination

98.7

Latest

Satellite identification and parameters

Extended collection of information and parameters for FENGYUN 1C DEB.

Object identification

Identified? True

Debris? True

Object name: FENGYUN 1C DEB

International designator: 1999-025DEZ

Object number (NORAD): 33664

Object ID (CCSDS): 33664

Country: PEOPLES REPUBLIC OF CHINA (PRC)

Current information (Y/N): Y

RCS size: SMALL

Orbital parameters

Period: 102.566 minutes

Inclination: 98.7018 deg

SMA: 7258.194 km

Apoapsis: 999.139 km

Periapsis: 760.979 km

RAAN: 125.3204 deg

Eccentricy: 0.01640632

Argument of periapsis: 69.7897 deg

Mean anomaly: 292.0828 deg

Mean motion: 14.03976749 rev/day

Mean motion (dot): 0.00000905 rev/day2

B* drag term: 0.00053085125 1/REarth

Two-line elements (TLE)

Creation date: Dec. 2, 2025, 11:04 a.m.

Reference frame: TEME

Reference center: EARTH

Epoch: Dec. 2, 2025, 3:10 a.m. UTC

TLE line 0: 0 FENGYUN 1C DEB

TLE line 1: 1 33664U 99025DEZ 25336.13230062 .00000905 00000-0 53085-3 0 9991

TLE line 2: 2 33664 98.7018 125.3204 0164063 69.7897 292.0828 14.03976749905904

Live tracking on map

Real-time ground track for satellite FENGYUN 1C DEB.

In-orbit conjunctions

A list of the most updated potential collisions computed for object FENGYUN 1C DEB.

Target Orbit TCA Probability of collision Miss distance Type
PEGASUS DEB LEO 2025-01-08 01:50:51 0.0001480078 172.0 (m) DEBRIS
THORAD AGENA D DEB SSO 2024-10-02 02:36:00 0.0001333792 113.0 (m) DEBRIS
SL-8 R/B LEO 2024-09-16 00:29:30 0.0003153304 341.0 (m) ROCKET BODY

Associated space launch

Chinese polar orbiting meteorological satellite

FENGYUN 1C DEB was lifted into orbit during the mission ‘Long March 4B | Feng Yun 1C’, on board a Long March 4B space rocket.

The launch took place on May 10, 1999, 1:33 a.m. from Launch Complex 7.

For more information about the launch, click the button.

Launch to space Long March 4B | Feng Yun 1C
Long March 4B | Feng Yun 1C

Agency: N/A

Status: Launch Successful

Launch date: May 10, 1999, 1:33 a.m. UTC

Rocket: Long March 4B

Launch pad: Launch Complex 7

Location: Taiyuan Satellite Launch Center, People's Republic of China

...

Latest news about this satellite

There are no fresh news available about this satellite. Check back as we update our databases every day.


Newsletter sign-up

Weekly statistics, charts and insights to help you stay on top of the space industry.